AOJ74J LICC-LXGB

Flight info

Callsign AOJ74J
Flight time 2h 41m
Altitude 37000
Route NELDA DCT UPLIT DCT SONAK UM978 MORJA UA411 MOS UA44 TARIK M192 AMR N865 UNTOS N851 MGA M985 PIMOS
Aircraft C750/M-SBDE3FGHRWXY/S

Departure

Time 2026-05-07 05:09
Airport Catania-Fontanarossa Airport (LICC)

Arrival

Time 2026-05-07 07:50
Airport Gibraltar Airport (LXGB)
Time Latitude Longitude Altitude Speed Heading
2026-05-07 04:53 37.46942 15.07112 28 ft 0 kts 39°
2026-05-07 05:03 37.46942 15.07115 28 ft 1 kts 77°
2026-05-07 05:03 37.46932 15.07119 28 ft 3 kts 179°
2026-05-07 05:03 37.46900 15.07115 29 ft 9 kts 197°
2026-05-07 05:04 37.46876 15.07048 29 ft 9 kts 267°
2026-05-07 05:04 37.46871 15.06955 28 ft 11 kts 265°
2026-05-07 05:04 37.46863 15.06863 28 ft 10 kts 263°
2026-05-07 05:04 37.46856 15.06779 28 ft 10 kts 263°
2026-05-07 05:05 37.46847 15.06678 28 ft 14 kts 265°
2026-05-07 05:05 37.46838 15.06565 28 ft 12 kts 264°
2026-05-07 05:05 37.46830 15.06460 28 ft 12 kts 264°
2026-05-07 05:05 37.46820 15.06354 28 ft 14 kts 263°
2026-05-07 05:06 37.46808 15.06210 28 ft 18 kts 264°
2026-05-07 05:06 37.46796 15.06059 28 ft 16 kts 264°
2026-05-07 05:06 37.46785 15.05923 28 ft 15 kts 263°
2026-05-07 05:06 37.46774 15.05801 28 ft 13 kts 263°
2026-05-07 05:07 37.46764 15.05686 28 ft 13 kts 264°
2026-05-07 05:07 37.46755 15.05582 28 ft 11 kts 264°
2026-05-07 05:07 37.46733 15.05497 28 ft 9 kts 228°
2026-05-07 05:07 37.46680 15.05464 29 ft 8 kts 187°
2026-05-07 05:08 37.46630 15.05477 31 ft 8 kts 151°
2026-05-07 05:08 37.46591 15.05545 31 ft 11 kts 105°
2026-05-07 05:08 37.46589 15.05573 30 ft 0 kts 84°
2026-05-07 05:08 37.46610 15.05822 31 ft 76 kts 84°
2026-05-07 05:09 37.46698 15.06812 46 ft 140 kts 80°
2026-05-07 05:09 37.46801 15.08096 397 ft 156 kts 79°
2026-05-07 05:09 37.46935 15.09561 657 ft 182 kts 79°
2026-05-07 05:09 37.47148 15.11173 1141 ft 192 kts 79°
2026-05-07 05:10 37.47380 15.12830 1872 ft 192 kts 79°
2026-05-07 05:10 37.47615 15.14489 2565 ft 194 kts 82°
2026-05-07 05:10 37.47755 15.16176 3169 ft 197 kts 98°
2026-05-07 05:10 37.47220 15.17743 3846 ft 196 kts 123°
2026-05-07 05:11 37.46232 15.18918 4525 ft 199 kts 148°
2026-05-07 05:11 37.44927 15.19456 5245 ft 200 kts 170°
2026-05-07 05:11 37.43529 15.19229 5874 ft 209 kts 194°
2026-05-07 05:11 37.42302 15.18185 6500 ft 220 kts 218°
2026-05-07 05:12 37.41296 15.16740 7152 ft 219 kts 222°
2026-05-07 05:12 37.40297 15.15306 7843 ft 217 kts 222°
2026-05-07 05:12 37.39295 15.13885 8540 ft 217 kts 222°
2026-05-07 05:12 37.38293 15.12462 9229 ft 217 kts 223°
2026-05-07 05:13 37.37293 15.11038 9879 ft 217 kts 223°
2026-05-07 05:13 37.36295 15.09618 10423 ft 218 kts 223°
2026-05-07 05:13 37.35285 15.08184 10929 ft 220 kts 224°
2026-05-07 05:13 37.34267 15.06738 11441 ft 222 kts 224°
2026-05-07 05:14 37.33239 15.05278 11938 ft 224 kts 224°
2026-05-07 05:14 37.32203 15.03807 12449 ft 226 kts 225°
2026-05-07 05:14 37.31160 15.02327 12962 ft 227 kts 225°
2026-05-07 05:14 37.30125 15.00860 13463 ft 228 kts 225°
2026-05-07 05:15 37.29067 14.99360 13895 ft 233 kts 226°
2026-05-07 05:15 37.27927 14.97752 13978 ft 260 kts 226°
2026-05-07 05:15 37.26664 14.95965 14029 ft 287 kts 226°
2026-05-07 05:15 37.25286 14.94012 14086 ft 310 kts 226°
2026-05-07 05:16 37.23803 14.91912 14125 ft 332 kts 226°
2026-05-07 05:16 37.22239 14.89700 14437 ft 341 kts 226°
2026-05-07 05:16 37.20663 14.87472 15004 ft 342 kts 227°
2026-05-07 05:16 37.19074 14.85230 15519 ft 345 kts 227°
2026-05-07 05:17 37.17470 14.82967 16044 ft 349 kts 227°
2026-05-07 05:17 37.15852 14.80686 16595 ft 351 kts 228°
2026-05-07 05:17 37.14220 14.78387 17182 ft 354 kts 228°
2026-05-07 05:17 37.12575 14.76073 17769 ft 357 kts 229°
2026-05-07 05:18 37.10914 14.73737 18339 ft 360 kts 229°
2026-05-07 05:18 37.09242 14.71387 18891 ft 363 kts 229°
2026-05-07 05:18 37.07558 14.69020 19460 ft 365 kts 230°
2026-05-07 05:18 37.05863 14.66640 20046 ft 367 kts 230°
2026-05-07 05:19 37.04155 14.64246 20636 ft 370 kts 230°
2026-05-07 05:19 37.02460 14.61872 21246 ft 371 kts 230°
2026-05-07 05:19 37.00736 14.59457 21831 ft 374 kts 230°
2026-05-07 05:19 36.98998 14.57025 22412 ft 376 kts 231°
2026-05-07 05:20 36.97248 14.54577 22992 ft 379 kts 231°
2026-05-07 05:20 36.95482 14.52110 23546 ft 382 kts 231°
2026-05-07 05:20 36.93710 14.49636 24054 ft 383 kts 231°
2026-05-07 05:20 36.91930 14.47153 24578 ft 384 kts 232°
2026-05-07 05:21 36.90145 14.44663 25097 ft 385 kts 232°
2026-05-07 05:21 36.86661 14.39579 26091 ft 384 kts 238°
2026-05-07 05:21 36.85233 14.36774 26615 ft 382 kts 244°
2026-05-07 05:22 36.84005 14.33841 27089 ft 382 kts 246°
2026-05-07 05:22 36.82768 14.30903 27575 ft 383 kts 246°
2026-05-07 05:22 36.81514 14.27960 28084 ft 384 kts 246°
2026-05-07 05:22 36.80269 14.25007 28588 ft 385 kts 247°
2026-05-07 05:23 36.79026 14.22042 29085 ft 386 kts 247°
2026-05-07 05:23 36.77773 14.19074 29621 ft 386 kts 247°
2026-05-07 05:23 36.76534 14.16150 30076 ft 387 kts 247°
2026-05-07 05:23 36.75277 14.13175 30443 ft 389 kts 247°
2026-05-07 05:24 36.74013 14.10184 30824 ft 391 kts 247°
2026-05-07 05:24 36.72748 14.07203 31393 ft 387 kts 247°
2026-05-07 05:24 36.71494 14.04251 31909 ft 384 kts 247°
2026-05-07 05:24 36.70249 14.01314 32410 ft 382 kts 247°
2026-05-07 05:25 36.69010 13.98395 32903 ft 380 kts 247°
2026-05-07 05:25 36.67776 13.95494 33420 ft 378 kts 246°
2026-05-07 05:25 36.66546 13.92605 33923 ft 376 kts 246°
2026-05-07 05:25 36.65324 13.89736 34364 ft 375 kts 246°
2026-05-07 05:26 36.64098 13.86860 34707 ft 376 kts 247°
2026-05-07 05:26 36.62873 13.83988 35191 ft 375 kts 247°
2026-05-07 05:26 36.61653 13.81136 35713 ft 372 kts 247°
2026-05-07 05:26 36.60441 13.78301 36223 ft 370 kts 248°
2026-05-07 05:27 36.59236 13.75483 36725 ft 368 kts 248°
2026-05-07 05:27 36.58036 13.72680 37227 ft 366 kts 248°
2026-05-07 05:27 36.56841 13.69891 37729 ft 364 kts 248°
2026-05-07 05:27 36.55666 13.67154 38218 ft 363 kts 248°
2026-05-07 05:28 36.54482 13.64396 38664 ft 361 kts 248°
2026-05-07 05:28 36.53299 13.61638 38939 ft 362 kts 248°
2026-05-07 05:28 36.52242 13.58804 39183 ft 361 kts 253°
2026-05-07 05:28 36.51435 13.55860 39465 ft 359 kts 258°
2026-05-07 05:29 36.50878 13.52837 39736 ft 359 kts 262°
2026-05-07 05:29 36.50572 13.49752 40006 ft 360 kts 267°
2026-05-07 05:29 36.50523 13.46643 40274 ft 361 kts 271°
2026-05-07 05:29 36.50708 13.43520 40568 ft 363 kts 274°
2026-05-07 05:30 36.50917 13.40390 40827 ft 365 kts 274°
2026-05-07 05:30 36.51114 13.37242 41091 ft 366 kts 274°
2026-05-07 05:30 36.51322 13.34075 41348 ft 368 kts 274°
2026-05-07 05:30 36.51535 13.30897 41607 ft 370 kts 274°
2026-05-07 05:31 36.51745 13.27698 41861 ft 372 kts 274°
2026-05-07 05:31 36.51952 13.24485 42109 ft 374 kts 273°
2026-05-07 05:31 36.52161 13.21255 42364 ft 376 kts 273°
2026-05-07 05:31 36.52372 13.18013 42615 ft 377 kts 273°
2026-05-07 05:32 36.52581 13.14755 42870 ft 379 kts 273°
2026-05-07 05:32 36.52790 13.11485 43127 ft 380 kts 273°
2026-05-07 05:32 36.52999 13.08200 43371 ft 382 kts 273°
2026-05-07 05:32 36.53208 13.04903 43621 ft 383 kts 273°
2026-05-07 05:33 36.53415 13.01634 43843 ft 385 kts 273°
2026-05-07 05:33 36.53624 12.98312 44073 ft 387 kts 273°
2026-05-07 05:33 36.53833 12.94971 44304 ft 388 kts 272°
2026-05-07 05:33 36.54042 12.91621 44518 ft 390 kts 272°
2026-05-07 05:34 36.54250 12.88262 44731 ft 389 kts 272°
2026-05-07 05:34 36.54458 12.84906 44867 ft 391 kts 272°
2026-05-07 05:34 36.54666 12.81507 44854 ft 397 kts 272°
2026-05-07 05:35 36.55017 12.75753 44877 ft 406 kts 272°
2026-05-07 05:35 36.55447 12.68659 44833 ft 416 kts 272°
2026-05-07 05:36 36.55880 12.61433 44864 ft 420 kts 272°
2026-05-07 05:36 36.56308 12.54197 44864 ft 420 kts 272°
2026-05-07 05:37 36.56734 12.46954 44865 ft 420 kts 272°
2026-05-07 05:37 36.57154 12.39718 44872 ft 420 kts 272°
2026-05-07 05:38 36.57572 12.32449 44873 ft 421 kts 272°
2026-05-07 05:38 36.57984 12.25181 44874 ft 421 kts 272°
2026-05-07 05:39 36.58394 12.17911 44884 ft 421 kts 272°
2026-05-07 05:39 36.58795 12.10692 44886 ft 421 kts 272°
2026-05-07 05:40 36.59195 12.03422 44900 ft 421 kts 272°
2026-05-07 05:40 36.59592 11.96142 44888 ft 422 kts 272°
2026-05-07 05:41 36.59983 11.88859 44893 ft 422 kts 272°
2026-05-07 05:41 36.60372 11.81593 44890 ft 419 kts 272°
2026-05-07 05:42 36.60750 11.74345 44888 ft 420 kts 272°
2026-05-07 05:42 36.61129 11.67094 44893 ft 420 kts 271°
2026-05-07 05:43 36.61502 11.59816 44901 ft 423 kts 271°
2026-05-07 05:43 36.61874 11.52500 44898 ft 423 kts 271°
2026-05-07 05:44 36.62893 11.45277 44902 ft 426 kts 280°
2026-05-07 05:44 36.64234 11.38089 44906 ft 426 kts 280°
2026-05-07 05:45 36.65584 11.30881 44914 ft 431 kts 280°
2026-05-07 05:45 36.66946 11.23563 44918 ft 441 kts 280°
2026-05-07 05:46 36.68342 11.16034 44920 ft 450 kts 280°
2026-05-07 05:46 36.69749 11.08415 44916 ft 451 kts 280°
2026-05-07 05:47 36.71153 11.00790 44915 ft 452 kts 280°
2026-05-07 05:47 36.72550 10.93160 44914 ft 452 kts 280°
2026-05-07 05:48 36.73943 10.85526 44928 ft 453 kts 279°
2026-05-07 05:48 36.75334 10.77869 44923 ft 452 kts 279°
2026-05-07 05:49 36.76719 10.70216 44931 ft 453 kts 279°
2026-05-07 05:49 36.78101 10.62556 44934 ft 453 kts 279°
2026-05-07 05:50 36.79480 10.54889 44933 ft 454 kts 279°
2026-05-07 05:50 36.80854 10.47217 44935 ft 456 kts 279°
2026-05-07 05:51 36.82232 10.39488 44937 ft 456 kts 279°
2026-05-07 05:51 36.83606 10.31759 44939 ft 456 kts 279°
2026-05-07 05:52 36.84884 10.24011 44930 ft 454 kts 275°
2026-05-07 05:52 36.85030 10.16162 44952 ft 454 kts 267°
2026-05-07 05:53 36.84927 10.08275 44950 ft 454 kts 267°
2026-05-07 05:53 36.84801 10.00405 44952 ft 454 kts 267°
2026-05-07 05:54 36.84678 9.92532 44948 ft 454 kts 267°
2026-05-07 05:54 36.84546 9.84656 44947 ft 454 kts 267°
2026-05-07 05:55 36.84409 9.76757 44956 ft 456 kts 267°
2026-05-07 05:55 36.84270 9.68894 44955 ft 456 kts 266°
2026-05-07 05:56 36.84122 9.60993 44947 ft 455 kts 267°
2026-05-07 05:56 36.83970 9.53089 44948 ft 455 kts 266°
2026-05-07 05:57 36.83813 9.45192 44962 ft 455 kts 267°
2026-05-07 05:57 36.83749 9.37220 44950 ft 461 kts 268°
2026-05-07 05:58 36.83731 9.29220 44949 ft 461 kts 268°
2026-05-07 05:58 36.83717 9.21218 44956 ft 461 kts 268°
2026-05-07 05:59 36.83693 9.13268 44960 ft 461 kts 268°
2026-05-07 05:59 36.83666 9.05269 44963 ft 458 kts 268°
2026-05-07 06:00 36.83634 8.97359 44961 ft 455 kts 268°
2026-05-07 06:00 36.83593 8.89437 44967 ft 457 kts 268°
2026-05-07 06:01 36.83553 8.81510 44969 ft 456 kts 268°
2026-05-07 06:01 36.83503 8.73585 44965 ft 456 kts 268°
2026-05-07 06:02 36.83450 8.65697 44968 ft 452 kts 268°
2026-05-07 06:02 36.83442 8.57847 44963 ft 453 kts 269°
2026-05-07 06:03 36.83458 8.50035 44961 ft 453 kts 268°
2026-05-07 06:03 36.83443 8.42169 44965 ft 453 kts 268°
2026-05-07 06:04 36.83441 8.34306 44994 ft 453 kts 268°
2026-05-07 06:04 36.83424 8.26454 44963 ft 452 kts 268°
2026-05-07 06:05 36.83405 8.18609 44960 ft 452 kts 268°
2026-05-07 06:05 36.83380 8.10763 44955 ft 452 kts 268°
2026-05-07 06:06 36.83351 8.02888 44958 ft 457 kts 268°
2026-05-07 06:06 36.83314 7.94909 44957 ft 461 kts 268°
2026-05-07 06:07 36.83275 7.86929 44950 ft 460 kts 268°
2026-05-07 06:07 36.83226 7.78993 44952 ft 460 kts 268°
2026-05-07 06:08 36.83133 7.71010 45063 ft 457 kts 267°
2026-05-07 06:08 36.83096 7.67154 46240 ft 430 kts 267°
2026-05-07 06:08 36.83062 7.63544 47491 ft 403 kts 267°
2026-05-07 06:08 36.83020 7.60086 47920 ft 397 kts 267°
2026-05-07 06:09 36.82972 7.56629 48037 ft 399 kts 267°
2026-05-07 06:09 36.82930 7.53170 48230 ft 398 kts 267°
2026-05-07 06:09 36.82891 7.49720 48426 ft 397 kts 267°
2026-05-07 06:09 36.82847 7.46275 48589 ft 397 kts 267°
2026-05-07 06:10 36.82801 7.42831 48745 ft 397 kts 267°
2026-05-07 06:10 36.82756 7.39387 48894 ft 397 kts 267°
2026-05-07 06:10 36.82710 7.35940 48984 ft 398 kts 267°
2026-05-07 06:11 36.82611 7.28967 48980 ft 405 kts 267°
2026-05-07 06:11 36.82509 7.21877 48986 ft 412 kts 267°
2026-05-07 06:12 36.82400 7.14720 48990 ft 419 kts 267°
2026-05-07 06:12 36.82285 7.07404 48984 ft 425 kts 267°
2026-05-07 06:13 36.82164 6.99984 48988 ft 430 kts 267°
2026-05-07 06:13 36.82040 6.92572 48831 ft 417 kts 266°
2026-05-07 06:13 36.81979 6.89005 48551 ft 406 kts 266°
2026-05-07 06:14 36.81916 6.85524 48259 ft 396 kts 266°
2026-05-07 06:14 36.81853 6.82120 47996 ft 390 kts 266°
2026-05-07 06:14 36.81791 6.78755 47723 ft 387 kts 266°
2026-05-07 06:14 36.81727 6.75384 47469 ft 390 kts 266°
2026-05-07 06:15 36.81663 6.71977 47228 ft 395 kts 266°
2026-05-07 06:15 36.81597 6.68565 47006 ft 403 kts 266°
2026-05-07 06:15 36.81529 6.65049 46997 ft 408 kts 266°
2026-05-07 06:16 36.81388 6.57903 46990 ft 416 kts 266°
2026-05-07 06:16 36.81238 6.50614 46979 ft 424 kts 266°
2026-05-07 06:17 36.81080 6.43200 46978 ft 431 kts 266°
2026-05-07 06:17 36.80918 6.35652 46980 ft 439 kts 266°
2026-05-07 06:18 36.80745 6.27984 46970 ft 446 kts 266°
2026-05-07 06:18 36.80567 6.20195 46968 ft 452 kts 266°
2026-05-07 06:19 36.80379 6.12293 46964 ft 459 kts 266°
2026-05-07 06:19 36.80184 6.04300 46949 ft 464 kts 266°
2026-05-07 06:20 36.79981 5.96247 46954 ft 464 kts 266°
2026-05-07 06:20 36.79772 5.88249 46948 ft 464 kts 265°
2026-05-07 06:21 36.79017 5.80280 46945 ft 463 kts 261°
2026-05-07 06:21 36.78242 5.72305 46953 ft 463 kts 261°
2026-05-07 06:22 36.77421 5.64319 46956 ft 465 kts 261°
2026-05-07 06:22 36.76208 5.52349 46958 ft 464 kts 261°
2026-05-07 06:23 36.75384 5.44360 46958 ft 465 kts 261°
2026-05-07 06:23 36.74559 5.36370 46956 ft 465 kts 261°
2026-05-07 06:24 36.73724 5.28365 46945 ft 467 kts 261°
2026-05-07 06:24 36.72884 5.20342 46947 ft 467 kts 261°
2026-05-07 06:25 36.72037 5.12324 46949 ft 466 kts 261°
2026-05-07 06:25 36.71418 5.04276 46950 ft 467 kts 265°
2026-05-07 06:26 36.71115 4.96180 46954 ft 468 kts 265°
2026-05-07 06:26 36.70805 4.88154 46953 ft 466 kts 265°
2026-05-07 06:27 36.70494 4.80091 46954 ft 466 kts 265°
2026-05-07 06:27 36.70172 4.72028 46956 ft 466 kts 265°
2026-05-07 06:28 36.69849 4.63955 46962 ft 466 kts 265°
2026-05-07 06:28 36.69517 4.55898 46974 ft 466 kts 265°
2026-05-07 06:29 36.69182 4.47810 46954 ft 467 kts 265°
2026-05-07 06:29 36.68839 4.39728 46954 ft 467 kts 265°
2026-05-07 06:30 36.68492 4.31645 46954 ft 467 kts 264°
2026-05-07 06:30 36.68138 4.23566 46956 ft 467 kts 264°
2026-05-07 06:31 36.67783 4.15536 46960 ft 469 kts 264°
2026-05-07 06:31 36.67419 4.07434 46957 ft 467 kts 264°
2026-05-07 06:32 36.67049 3.99359 46950 ft 467 kts 264°
2026-05-07 06:32 36.66672 3.91263 46953 ft 468 kts 264°
2026-05-07 06:33 36.66294 3.83178 46950 ft 466 kts 264°
2026-05-07 06:33 36.65905 3.75084 46957 ft 470 kts 264°
2026-05-07 06:34 36.65512 3.66951 46959 ft 470 kts 264°
2026-05-07 06:34 36.65257 3.58821 46937 ft 472 kts 270°
2026-05-07 06:35 36.66043 3.50675 46961 ft 475 kts 274°
2026-05-07 06:35 36.66751 3.43898 46959 ft 474 kts 274°
2026-05-07 06:36 36.67755 3.34431 46951 ft 474 kts 274°
2026-05-07 06:36 36.68605 3.26280 46951 ft 474 kts 274°
2026-05-07 06:37 36.68814 3.18126 46940 ft 470 kts 262°
2026-05-07 06:37 36.68240 3.11410 46956 ft 469 kts 262°
2026-05-07 06:38 36.67572 3.03316 46954 ft 470 kts 262°
2026-05-07 06:38 36.66885 2.95218 46949 ft 470 kts 263°
2026-05-07 06:39 36.66478 2.87082 46951 ft 471 kts 264°
2026-05-07 06:39 36.66092 2.78943 46957 ft 471 kts 264°
2026-05-07 06:40 36.65690 2.70812 46962 ft 471 kts 264°
2026-05-07 06:40 36.65289 2.62665 46949 ft 473 kts 264°
2026-05-07 06:41 36.64876 2.54487 46957 ft 473 kts 264°
2026-05-07 06:41 36.64460 2.46309 46955 ft 473 kts 264°
2026-05-07 06:42 36.64037 2.38136 46949 ft 473 kts 264°
2026-05-07 06:42 36.63612 2.30020 46949 ft 473 kts 264°
2026-05-07 06:43 36.63177 2.21822 46956 ft 476 kts 264°
2026-05-07 06:43 36.62736 2.13609 46960 ft 475 kts 264°
2026-05-07 06:44 36.62289 2.05404 46960 ft 475 kts 264°
2026-05-07 06:44 36.61837 1.97202 46961 ft 475 kts 264°
2026-05-07 06:45 36.61379 1.88995 46966 ft 476 kts 264°
2026-05-07 06:45 36.60915 1.80776 46953 ft 476 kts 264°
2026-05-07 06:46 36.60445 1.72560 46958 ft 476 kts 264°
2026-05-07 06:46 36.59969 1.64344 46958 ft 476 kts 264°
2026-05-07 06:47 36.59491 1.56187 46956 ft 476 kts 264°
2026-05-07 06:47 36.59004 1.47971 46954 ft 476 kts 264°
2026-05-07 06:48 36.58512 1.39769 46956 ft 476 kts 264°
2026-05-07 06:48 36.58015 1.31563 46954 ft 476 kts 264°
2026-05-07 06:49 36.57511 1.23351 46955 ft 476 kts 264°
2026-05-07 06:49 36.57003 1.15152 46951 ft 475 kts 263°
2026-05-07 06:50 36.56489 1.06967 46955 ft 474 kts 263°
2026-05-07 06:50 36.55969 0.98788 46957 ft 475 kts 263°
2026-05-07 06:51 36.55445 0.90602 46958 ft 475 kts 263°
2026-05-07 06:51 36.54914 0.82422 46959 ft 475 kts 263°
2026-05-07 06:52 36.54382 0.74294 46953 ft 475 kts 263°
2026-05-07 06:52 36.53840 0.66099 46950 ft 476 kts 263°
2026-05-07 06:53 36.53292 0.57907 46954 ft 475 kts 263°
2026-05-07 06:53 36.52738 0.49717 46957 ft 475 kts 263°
2026-05-07 06:54 36.52181 0.41527 46962 ft 475 kts 263°
2026-05-07 06:54 36.51615 0.33332 46949 ft 477 kts 263°
2026-05-07 06:55 36.51041 0.25123 46945 ft 477 kts 263°
2026-05-07 06:55 36.50465 0.16914 46943 ft 477 kts 263°
2026-05-07 06:56 36.49883 0.08722 46951 ft 475 kts 263°
2026-05-07 06:56 36.49299 0.00599 46953 ft 475 kts 263°
2026-05-07 06:57 36.48705 -0.07610 46952 ft 478 kts 263°
2026-05-07 06:57 36.48103 -0.15839 46955 ft 478 kts 263°
2026-05-07 06:58 36.47495 -0.24066 46954 ft 478 kts 263°
2026-05-07 06:58 36.46883 -0.32292 46953 ft 478 kts 263°
2026-05-07 06:59 36.46264 -0.40514 46952 ft 478 kts 263°
2026-05-07 06:59 36.45640 -0.48733 46954 ft 478 kts 262°
2026-05-07 07:00 36.45010 -0.56950 46951 ft 478 kts 262°
2026-05-07 07:00 36.44375 -0.65165 46948 ft 478 kts 262°
2026-05-07 07:01 36.43734 -0.73382 46948 ft 478 kts 262°
2026-05-07 07:01 36.43087 -0.81602 46960 ft 479 kts 262°
2026-05-07 07:02 36.42438 -0.89778 46962 ft 479 kts 262°
2026-05-07 07:02 36.41778 -0.98008 46964 ft 479 kts 262°
2026-05-07 07:03 36.41136 -1.06236 46957 ft 479 kts 264°
2026-05-07 07:03 36.41641 -1.14516 46953 ft 485 kts 278°
2026-05-07 07:04 36.43864 -1.22457 46955 ft 491 kts 291°
2026-05-07 07:04 36.46831 -1.30106 46966 ft 492 kts 291°
2026-05-07 07:05 36.49788 -1.37777 46979 ft 492 kts 291°
2026-05-07 07:05 36.52756 -1.45470 46957 ft 493 kts 291°
2026-05-07 07:06 36.55688 -1.53098 46964 ft 487 kts 291°
2026-05-07 07:06 36.58597 -1.60696 46967 ft 493 kts 291°
2026-05-07 07:07 36.61546 -1.68405 46972 ft 493 kts 291°
2026-05-07 07:07 36.64488 -1.76119 46959 ft 493 kts 291°
2026-05-07 07:08 36.67427 -1.83841 46964 ft 493 kts 291°
2026-05-07 07:08 36.70359 -1.91566 46983 ft 493 kts 291°
2026-05-07 07:09 36.73297 -1.99328 46993 ft 495 kts 291°
2026-05-07 07:09 36.76244 -2.07132 46968 ft 498 kts 291°
2026-05-07 07:10 36.79168 -2.14892 46977 ft 497 kts 291°
2026-05-07 07:10 36.82104 -2.22710 46980 ft 498 kts 291°
2026-05-07 07:11 36.85225 -2.30438 46988 ft 499 kts 294°
2026-05-07 07:11 36.88498 -2.38061 46985 ft 497 kts 294°
2026-05-07 07:12 36.91730 -2.45706 46972 ft 498 kts 294°
2026-05-07 07:12 36.94984 -2.53345 46974 ft 498 kts 294°
2026-05-07 07:13 36.98217 -2.61003 46984 ft 499 kts 294°
2026-05-07 07:13 37.01462 -2.68670 46992 ft 498 kts 294°
2026-05-07 07:14 37.04657 -2.76260 46987 ft 496 kts 294°
2026-05-07 07:14 37.07749 -2.83984 46994 ft 495 kts 293°
2026-05-07 07:15 37.10830 -2.91699 46879 ft 491 kts 293°
2026-05-07 07:15 37.12337 -2.95502 46186 ft 483 kts 293°
2026-05-07 07:15 37.13817 -2.99246 45561 ft 475 kts 292°
2026-05-07 07:16 37.15272 -3.02922 44943 ft 466 kts 293°
2026-05-07 07:16 37.16699 -3.06530 44320 ft 458 kts 293°
2026-05-07 07:16 37.18098 -3.10071 43723 ft 448 kts 292°
2026-05-07 07:16 37.19463 -3.13536 43179 ft 439 kts 292°
2026-05-07 07:17 37.20799 -3.16940 42594 ft 430 kts 292°
2026-05-07 07:17 37.21860 -3.20401 42032 ft 421 kts 283°
2026-05-07 07:17 37.22497 -3.23966 41480 ft 417 kts 276°
2026-05-07 07:17 37.22721 -3.27586 40943 ft 417 kts 268°
2026-05-07 07:18 37.22532 -3.31223 40367 ft 419 kts 261°
2026-05-07 07:18 37.21933 -3.34794 39814 ft 419 kts 253°
2026-05-07 07:18 37.20949 -3.38175 39275 ft 419 kts 246°
2026-05-07 07:18 37.19666 -3.41453 38730 ft 418 kts 244°
2026-05-07 07:19 37.18374 -3.44718 38102 ft 417 kts 245°
2026-05-07 07:19 37.17099 -3.47972 37574 ft 415 kts 244°
2026-05-07 07:19 37.15814 -3.51221 37024 ft 416 kts 244°
2026-05-07 07:19 37.14523 -3.54473 36480 ft 417 kts 243°
2026-05-07 07:20 37.13234 -3.57726 35927 ft 417 kts 243°
2026-05-07 07:20 37.11948 -3.60975 35378 ft 416 kts 243°
2026-05-07 07:20 37.10659 -3.64223 34828 ft 416 kts 242°
2026-05-07 07:20 37.09370 -3.67463 34277 ft 415 kts 242°
2026-05-07 07:21 37.08083 -3.70697 33776 ft 414 kts 241°
2026-05-07 07:21 37.06793 -3.73932 33207 ft 416 kts 241°
2026-05-07 07:21 37.05495 -3.77188 32577 ft 418 kts 242°
2026-05-07 07:21 37.04197 -3.80443 32103 ft 420 kts 242°
2026-05-07 07:22 37.02886 -3.83725 31550 ft 423 kts 242°
2026-05-07 07:22 37.01566 -3.87024 30913 ft 425 kts 242°
2026-05-07 07:22 37.00259 -3.90290 30420 ft 426 kts 242°
2026-05-07 07:22 36.98940 -3.93581 29839 ft 421 kts 242°
2026-05-07 07:23 36.97636 -3.96834 29287 ft 415 kts 242°
2026-05-07 07:23 36.96341 -4.00057 28752 ft 414 kts 242°
2026-05-07 07:23 36.95053 -4.03260 28214 ft 411 kts 241°
2026-05-07 07:23 36.93775 -4.06437 27675 ft 408 kts 241°
2026-05-07 07:24 36.92506 -4.09590 27167 ft 405 kts 241°
2026-05-07 07:24 36.91243 -4.12721 26394 ft 402 kts 242°
2026-05-07 07:24 36.89984 -4.15843 25520 ft 398 kts 242°
2026-05-07 07:24 36.88765 -4.18866 25456 ft 390 kts 241°
2026-05-07 07:25 36.86302 -4.24945 24583 ft 387 kts 241°
2026-05-07 07:25 36.85090 -4.27942 24098 ft 387 kts 241°
2026-05-07 07:25 36.83879 -4.30927 23595 ft 384 kts 241°
2026-05-07 07:26 36.82666 -4.33895 23033 ft 380 kts 240°
2026-05-07 07:26 36.81165 -4.36584 22558 ft 378 kts 227°
2026-05-07 07:26 36.79197 -4.38752 21811 ft 380 kts 214°
2026-05-07 07:26 36.76980 -4.40453 21671 ft 376 kts 212°
2026-05-07 07:27 36.74775 -4.42218 21071 ft 375 kts 214°
2026-05-07 07:27 36.72608 -4.44000 20390 ft 372 kts 214°
2026-05-07 07:27 36.70430 -4.45733 19731 ft 371 kts 213°
2026-05-07 07:27 36.68281 -4.47411 19083 ft 368 kts 213°
2026-05-07 07:28 36.66123 -4.49118 18440 ft 366 kts 214°
2026-05-07 07:28 36.63989 -4.50824 17744 ft 363 kts 214°
2026-05-07 07:28 36.61874 -4.52505 17291 ft 361 kts 213°
2026-05-07 07:28 36.59756 -4.54174 16821 ft 360 kts 213°
2026-05-07 07:29 36.57643 -4.55844 16354 ft 359 kts 213°
2026-05-07 07:29 36.55541 -4.57509 15887 ft 358 kts 213°
2026-05-07 07:29 36.53441 -4.59171 15417 ft 357 kts 213°
2026-05-07 07:29 36.51349 -4.60822 14945 ft 356 kts 213°
2026-05-07 07:30 36.49261 -4.62470 14499 ft 355 kts 213°
2026-05-07 07:30 36.47177 -4.64115 14040 ft 354 kts 213°
2026-05-07 07:30 36.45101 -4.65752 13562 ft 353 kts 213°
2026-05-07 07:30 36.43037 -4.67378 13097 ft 350 kts 213°
2026-05-07 07:31 36.40986 -4.68993 12642 ft 348 kts 213°
2026-05-07 07:31 36.38952 -4.70594 12188 ft 345 kts 213°
2026-05-07 07:31 36.36932 -4.72183 11739 ft 343 kts 213°
2026-05-07 07:31 36.34924 -4.73762 11295 ft 341 kts 213°
2026-05-07 07:32 36.32964 -4.75304 10873 ft 323 kts 213°
2026-05-07 07:32 36.31123 -4.76751 10494 ft 303 kts 213°
2026-05-07 07:32 36.29390 -4.78111 10140 ft 287 kts 213°
2026-05-07 07:32 36.27732 -4.79411 9792 ft 279 kts 212°
2026-05-07 07:33 36.26105 -4.80687 9417 ft 275 kts 212°
2026-05-07 07:33 36.24492 -4.81950 9062 ft 274 kts 212°
2026-05-07 07:33 36.22886 -4.83208 8706 ft 272 kts 212°
2026-05-07 07:33 36.21309 -4.84441 8357 ft 272 kts 212°
2026-05-07 07:34 36.19716 -4.85688 8006 ft 270 kts 212°
2026-05-07 07:34 36.18133 -4.86926 7655 ft 269 kts 212°
2026-05-07 07:34 36.16557 -4.88158 7303 ft 267 kts 212°
2026-05-07 07:34 36.14981 -4.89379 6962 ft 267 kts 211°
2026-05-07 07:35 36.13362 -4.90481 6606 ft 264 kts 210°
2026-05-07 07:35 36.11783 -4.91637 6252 ft 262 kts 211°
2026-05-07 07:35 36.10223 -4.92773 5910 ft 260 kts 210°
2026-05-07 07:35 36.08642 -4.93886 5566 ft 261 kts 209°
2026-05-07 07:36 36.07064 -4.94996 5224 ft 261 kts 210°
2026-05-07 07:36 36.05491 -4.96112 4929 ft 257 kts 210°
2026-05-07 07:36 36.03963 -4.97201 4931 ft 254 kts 211°
2026-05-07 07:36 36.02764 -4.98598 4899 ft 227 kts 235°
2026-05-07 07:37 36.02143 -5.00378 4912 ft 229 kts 256°
2026-05-07 07:37 36.02129 -5.02345 4920 ft 232 kts 278°
2026-05-07 07:37 36.02741 -5.04176 4927 ft 237 kts 301°
2026-05-07 07:37 36.03768 -5.05780 4958 ft 239 kts 306°
2026-05-07 07:38 36.04814 -5.07374 4951 ft 238 kts 306°
2026-05-07 07:38 36.05849 -5.08968 4950 ft 238 kts 306°
2026-05-07 07:38 36.06889 -5.10568 4795 ft 242 kts 306°
2026-05-07 07:38 36.07938 -5.12177 4404 ft 237 kts 306°
2026-05-07 07:39 36.08955 -5.13734 4010 ft 226 kts 306°
2026-05-07 07:39 36.09924 -5.15224 3606 ft 220 kts 306°
2026-05-07 07:39 36.10871 -5.16682 3215 ft 214 kts 306°
2026-05-07 07:39 36.11774 -5.18069 2834 ft 201 kts 305°
2026-05-07 07:40 36.12331 -5.18925 2827 ft 183 kts 305°
2026-05-07 07:40 36.13099 -5.20108 2810 ft 174 kts 304°
2026-05-07 07:40 36.13869 -5.21303 2525 ft 179 kts 306°
2026-05-07 07:40 36.14862 -5.22829 2189 ft 154 kts 306°
2026-05-07 07:41 36.15229 -5.23515 2196 ft 132 kts 293°
2026-05-07 07:41 36.15471 -5.24957 2055 ft 134 kts 269°
2026-05-07 07:41 36.15434 -5.25735 1759 ft 135 kts 266°
2026-05-07 07:41 36.15395 -5.26875 1198 ft 129 kts 268°
2026-05-07 07:42 36.15357 -5.27942 831 ft 119 kts 267°
2026-05-07 07:42 36.15314 -5.28966 626 ft 120 kts 267°
2026-05-07 07:42 36.15282 -5.29997 517 ft 123 kts 266°
2026-05-07 07:42 36.15235 -5.31053 493 ft 126 kts 267°
2026-05-07 07:43 36.15204 -5.32139 419 ft 128 kts 268°
2026-05-07 07:43 36.15170 -5.33235 266 ft 129 kts 268°
2026-05-07 07:43 36.15133 -5.34336 30 ft 125 kts 268°
2026-05-07 07:43 36.15080 -5.35272 46 ft 101 kts 268°
2026-05-07 07:44 36.15056 -5.36271 284 ft 128 kts 269°
2026-05-07 07:44 36.15009 -5.37393 823 ft 130 kts 266°
2026-05-07 07:44 36.14865 -5.38550 1088 ft 150 kts 242°
2026-05-07 07:44 36.13915 -5.39211 1195 ft 174 kts 186°
2026-05-07 07:45 36.12724 -5.39091 1865 ft 166 kts 177°
2026-05-07 07:45 36.11609 -5.38962 2784 ft 156 kts 178°
2026-05-07 07:45 36.10534 -5.38558 2998 ft 178 kts 148°
2026-05-07 07:45 36.09973 -5.37193 2756 ft 188 kts 97°
2026-05-07 07:46 36.10023 -5.35587 2648 ft 186 kts 89°
2026-05-07 07:46 36.10080 -5.33954 2847 ft 190 kts 90°
2026-05-07 07:46 36.10134 -5.32325 3031 ft 197 kts 90°
2026-05-07 07:46 36.10179 -5.30642 2938 ft 193 kts 90°
2026-05-07 07:47 36.10223 -5.28972 2696 ft 195 kts 90°
2026-05-07 07:47 36.10581 -5.27392 2264 ft 194 kts 53°
2026-05-07 07:47 36.11669 -5.26631 1769 ft 175 kts
2026-05-07 07:47 36.12875 -5.26543 1544 ft 176 kts 359°
2026-05-07 07:48 36.14078 -5.26461 1538 ft 173 kts 358°
2026-05-07 07:48 36.15229 -5.26761 1488 ft 165 kts 328°
2026-05-07 07:48 36.15939 -5.27799 1801 ft 158 kts 288°
2026-05-07 07:48 36.15848 -5.29108 1729 ft 146 kts 249°
2026-05-07 07:49 36.15591 -5.30272 1259 ft 137 kts 254°
2026-05-07 07:49 36.15329 -5.31403 724 ft 138 kts 257°
2026-05-07 07:49 36.15204 -5.32558 363 ft 130 kts 265°
2026-05-07 07:49 36.15152 -5.33641 134 ft 124 kts 268°
2026-05-07 07:50 36.15128 -5.34670 17 ft 106 kts 268°
2026-05-07 07:50 36.15101 -5.35420 16 ft 61 kts 268°
2026-05-07 07:50 36.15090 -5.35773 13 ft 23 kts 267°
2026-05-07 07:50 36.15075 -5.35863 13 ft 3 kts 266°
2026-05-07 07:51 36.15087 -5.35850 13 ft 7 kts 80°
2026-05-07 07:51 36.15089 -5.35771 13 ft 12 kts 86°
2026-05-07 07:51 36.15095 -5.35669 13 ft 12 kts 86°
2026-05-07 07:51 36.15099 -5.35545 14 ft 18 kts 88°
2026-05-07 07:52 36.15102 -5.35392 16 ft 17 kts 88°
2026-05-07 07:52 36.15107 -5.35250 16 ft 16 kts 87°
2026-05-07 07:52 36.15112 -5.35111 16 ft 18 kts 87°
2026-05-07 07:52 36.15118 -5.34959 16 ft 17 kts 87°
2026-05-07 07:53 36.15116 -5.34821 15 ft 12 kts 113°
2026-05-07 07:53 36.15066 -5.34784 15 ft 8 kts 173°
2026-05-07 07:53 36.15012 -5.34781 15 ft 7 kts 178°
2026-05-07 07:53 36.15000 -5.34769 15 ft 1 kts 86°
2026-05-07 07:54 36.15003 -5.34767 15 ft 1 kts 28°
2026-05-07 07:54 36.14975 -5.34782 15 ft 5 kts 21°
2026-05-07 07:54 36.14969 -5.34785 15 ft 0 kts 21°